Regional Weather Roundup
Issued by NWS

Home | Current Version | Previous Version | Graphics & Text | Print | Product List | Glossary On
Versions: 1 2 3 4 5 6 7 8 9 10 11 12 13 14 15 16 17 18 19 20 21 22 23 24 25 26 27 28 29 30 31 32 33 34 35 36 37 38 39 40 41 42 43 44 45 46 47 48 49 50
000
ASUS43 KLSX 162257
RWRMO

WEATHER SUMMARY FOR MISSOURI
NATIONAL WEATHER SERVICE SPRINGFIELD MO
500 PM CST TUE JAN 16 2018

NOTE: "FAIR" INDICATES FEW OR NO CLOUDS BELOW 12,000 FEET WITH NO
       SIGNIFICANT WEATHER AND/OR OBSTRUCTIONS TO VISIBILITY.
       CURRENT SKY AND/OR WEATHER CONDITIONS ARE NOT AVAILABLE FOR
       CHILLICOTHE AND FARMINGTON.

MOZ001>031-035>038-043-044-053-054-170000-
...NORTHERN AND WESTERN MISSOURI...

CITY           SKY/WX    TMP DP  RH WIND       PRES   REMARKS
KANSAS CTY INT PTCLDY     7  -1  70 NW8       30.71S WCI  -6
LEE`S SUMMIT   CLEAR      9   0  67 NW9       30.70F WCI  -4
ST JOSEPH      CLEAR      8   1  73 NW7       30.74S WCI  -3

$$
MOZ066>068-077>081-088>096-101>105-170000-
...SOUTHWEST MISSOURI...

CITY           SKY/WX    TMP DP  RH WIND       PRES   REMARKS
SPRINGFIELD    CLOUDY     7  -1  70 W7        30.66S WCI  -5
JOPLIN         PTCLDY     7   0  72 NW7       30.73F WCI  -5
BRANSON        PTCLDY     7  -2  66 NW10      30.67R WCI  -8

$$
MOZ032>034-039>042-045>050-055>058-069>072-170000-
...CENTRAL MISSOURI...

CITY           SKY/WX    TMP DP  RH WIND       PRES   REMARKS
COLUMBIA       NOT AVBL
JEFFERSON CITY CLOUDY     9   0  67 NW12      30.72S WCI  -6
ROLLA          CLEAR      5  -2  72 W9        30.65R WCI  -9
SEDALIA        CLEAR      9   2  73 NW8       30.70S WCI  -3
WARRENSBURG    CLEAR     10   1  67 NW3       30.72S
OSAGE BEACH    PTCLDY     9   0  66 NW3       30.70S

$$
MOZ051-052-059>065-170000-
...EAST CENTRAL MISSOURI...

CITY           SKY/WX    TMP DP  RH WIND       PRES   REMARKS
ST LOUIS INTL  PTCLDY     8   0  69 W10       30.66S WCI  -6

$$
MOZ072>076-082>087-097>100-106>115-170000-
...SOUTH CENTRAL AND SOUTHEAST MISSOURI...

CITY           SKY/WX    TMP DP  RH WIND       PRES   REMARKS
CAPE GIRARDEAU CLOUDY    13   2  61 N8        30.67R WCI   2
POPLAR BLUFF   CLOUDY   N/A N/A N/A N10       30.66R
WEST PLAINS    CLEAR      9  -3  58 NW8       30.62S WCI  -3

$$


USA.gov is the U.S. government's official web portal to all federal, state and local government web resources and services.